Weather History for Lanai City, HI

Change the Weather History Date:

Sunday, September 2, 2012

  Actual Average Record
Temperature  
Mean Temperature 72 °F -  
Max Temperature 79 °F 84 °F 87 °F (1979)
Min Temperature 66 °F 65 °F 60 °F (1981)
Cooling Degree Days 8    
Growing Degree Days 22 (Base 50)    
Moisture  
Dew Point 63 °F    
Average Humidity 74    
Maximum Humidity 94    
Minimum Humidity 54    
Precipitation  
Precipitation 0.00 in - - ()
Sea Level Pressure  
Sea Level Pressure 30.07 in    
Wind  
Wind Speed 10 mph (NE)    
Max Wind Speed 24 mph    
Max Gust Speed -    
Visibility 10 miles    
Events      
Averages and records for this station are not official NWS values.
T = Trace of Precipitation, MM = Missing Value Source: NWS Daily Summary

Daily Weather History Graph

Daily Weather History Graph

Search for Another Location

Airport:

Trip Planner

Search our weather history database for the weather conditions in past years. The results will help you decide how hot, cold, wet, or windy it might be!

Date:

Astronomy

Sep. 02, 2012 Rise Set
Actual Time 6:12 AM HST 6:42 PM HST
Civil Twilight 5:49 AM HST 7:04 PM HST
Nautical Twilight 5:23 AM HST 7:30 PM HST
Astronomical Twilight 4:56 AM HST 7:57 PM HST
Moon 8:05 PM HST (9/2) 8:05 AM HST (9/2)
Length of Visible Light 13h 14m
Length of Day
12h 29m
Waning Gibbous, 94% of the Moon is Illuminated
Sep 2
Waning Gibbous
Sep 8
Last Quarter
Sep 15
New
Sep 22
First Quarter
Sep 29
Full

Hourly Weather History & Observations

Time (HST) Temp. Dew Point Humidity Pressure Visibility Wind Dir Wind Speed Gust Speed Precip Events Conditions
12:56 AM 68.9 °F 64.9 °F 87% 30.06 in - NNE 11.5 mph - N/A   Overcast
1:19 AM 68.0 °F 64.4 °F 88% 30.11 in - ENE 9.2 mph - N/A   Mostly Cloudy
1:56 AM 68.0 °F 64.9 °F 90% 30.04 in - East 6.9 mph - N/A   Mostly Cloudy
2:56 AM 68.0 °F 64.9 °F 90% 30.04 in - NNE 6.9 mph - N/A   Mostly Cloudy
3:10 AM 68.0 °F 64.4 °F 88% 30.10 in - NE 10.4 mph - N/A   Overcast
3:38 AM 66.2 °F 64.4 °F 94% 30.08 in - Calm Calm - N/A   Mostly Cloudy
3:56 AM 66.9 °F 63.9 °F 90% 30.02 in - ENE 5.8 mph - N/A   Mostly Cloudy
4:56 AM 66.9 °F 63.0 °F 87% 30.03 in - NE 12.7 mph - N/A   Clear
5:56 AM 68.0 °F 61.0 °F 78% 30.05 in - East 9.2 mph - N/A   Mostly Cloudy
6:56 AM 68.0 °F 63.9 °F 87% 30.07 in - Calm Calm - N/A   Overcast
7:56 AM 72.9 °F 63.0 °F 71% 30.08 in - NE 12.7 mph - N/A   Mostly Cloudy
8:38 AM 69.8 °F 64.4 °F 83% 30.14 in - NE 12.7 mph - N/A   Mostly Cloudy
8:56 AM 70.0 °F 64.9 °F 84% 30.10 in - ENE 6.9 mph - N/A   Overcast
9:20 AM 73.4 °F 64.4 °F 73% 30.15 in 10.0 mi ENE 6.9 mph - N/A   Scattered Clouds
9:45 AM 78.8 °F 64.4 °F 61% 30.14 in - ENE 17.3 mph - N/A   Mostly Cloudy
9:56 AM 77.9 °F 61.9 °F 58% 30.08 in - ENE 18.4 mph - N/A   Mostly Cloudy
10:09 AM 77.0 °F 62.6 °F 61% 30.14 in - ENE 17.3 mph - N/A   Mostly Cloudy
10:56 AM 78.8 °F 62.6 °F 57% 30.14 in 10.0 mi ENE 10.4 mph - N/A   Mostly Cloudy
11:27 AM 77.0 °F 62.6 °F 61% 30.13 in - NE 18.4 mph - N/A   Mostly Cloudy
11:56 AM 79.0 °F 61.9 °F 56% 30.06 in - NE 24.2 mph - N/A   Mostly Cloudy
12:56 PM 79.0 °F 61.0 °F 54% 30.04 in - ENE 19.6 mph - N/A   Mostly Cloudy
1:56 PM 77.9 °F 61.0 °F 56% 30.03 in - Calm Calm - N/A   Mostly Cloudy
2:56 PM 79.0 °F 61.0 °F 54% 30.00 in - NE 15.0 mph - N/A   Overcast
3:56 PM 79.9 °F 63.0 °F 56% 29.99 in - Calm Calm - N/A   Mostly Cloudy
4:56 PM 77.9 °F 63.0 °F 60% 29.99 in - NE 19.6 mph - N/A   Mostly Cloudy
5:56 PM 73.9 °F 63.0 °F 68% 30.00 in - NNE 16.1 mph - N/A   Mostly Cloudy
6:29 PM 71.6 °F 62.6 °F 73% 30.06 in - NE 18.4 mph - N/A   Clear
6:56 PM 70.9 °F 63.9 °F 78% 30.01 in - NE 12.7 mph - N/A   Clear
7:56 PM 70.9 °F 63.0 °F 76% 30.02 in - NE 17.3 mph - N/A   Clear
8:56 PM 68.9 °F 61.9 °F 78% 30.04 in - East 9.2 mph - N/A   Mostly Cloudy
9:56 PM 68.9 °F 61.9 °F 78% 30.04 in - NE 9.2 mph - N/A   Clear
10:41 PM 69.8 °F 62.6 °F 78% 30.11 in - Calm Calm - N/A   Overcast
10:56 PM 69.8 °F 62.6 °F 78% 30.11 in - ENE 6.9 mph - N/A   Mostly Cloudy
11:56 PM 66.9 °F 63.0 °F 87% 30.04 in - Calm Calm - N/A   Mostly Cloudy